RYR6NJ LIRN-LOWW

Flight info

Callsign RYR6NJ
Flight time 1h 17m
Altitude 36000
Route BEDPI DCT MOLUX DCT VAPUP/N0452F350 DCT OBUTI OBUTI2W
Aircraft B738/M-SDE2E3FGHIRWXY/LB1

Departure

Time 2026-04-21 06:25
Airport Naples International Airport (LIRN)

Arrival

Time 2026-04-21 07:42
Airport Vienna International Airport (LOWW)
Time Latitude Longitude Altitude Speed Heading
2026-04-21 05:54 40.87869 14.28129 299 ft 0 kts 141°
2026-04-21 06:13 40.87882 14.28115 300 ft 4 kts 141°
2026-04-21 06:13 40.87902 14.28094 299 ft 2 kts 141°
2026-04-21 06:14 40.87917 14.28074 302 ft 4 kts 103°
2026-04-21 06:14 40.87913 14.28045 303 ft 3 kts 51°
2026-04-21 06:14 40.87905 14.28032 302 ft 2 kts 51°
2026-04-21 06:19 40.87906 14.28035 301 ft 1 kts 51°
2026-04-21 06:19 40.87914 14.28047 303 ft 3 kts 51°
2026-04-21 06:19 40.87943 14.28094 299 ft 11 kts 51°
2026-04-21 06:20 40.87956 14.28222 295 ft 19 kts 97°
2026-04-21 06:20 40.87941 14.28378 295 ft 10 kts 98°
2026-04-21 06:20 40.87956 14.28479 289 ft 14 kts 40°
2026-04-21 06:20 40.88037 14.28592 285 ft 20 kts 52°
2026-04-21 06:21 40.88136 14.28763 281 ft 24 kts 52°
2026-04-21 06:21 40.88232 14.28929 276 ft 24 kts 53°
2026-04-21 06:21 40.88345 14.29126 270 ft 30 kts 52°
2026-04-21 06:21 40.88444 14.29295 261 ft 24 kts 52°
2026-04-21 06:22 40.88542 14.29465 254 ft 23 kts 52°
2026-04-21 06:22 40.88644 14.29642 249 ft 25 kts 52°
2026-04-21 06:22 40.88755 14.29833 242 ft 27 kts 52°
2026-04-21 06:22 40.88867 14.30027 237 ft 25 kts 53°
2026-04-21 06:23 40.88974 14.30213 231 ft 25 kts 52°
2026-04-21 06:23 40.89076 14.30388 224 ft 23 kts 52°
2026-04-21 06:23 40.89152 14.30448 222 ft 13 kts 349°
2026-04-21 06:23 40.89215 14.30386 223 ft 10 kts 277°
2026-04-21 06:24 40.89178 14.30300 225 ft 15 kts 237°
2026-04-21 06:24 40.89034 14.29993 240 ft 73 kts 238°
2026-04-21 06:24 40.88642 14.29160 263 ft 137 kts 238°
2026-04-21 06:24 40.88071 14.27945 617 ft 157 kts 238°
2026-04-21 06:25 40.87513 14.26802 1518 ft 148 kts 231°
2026-04-21 06:25 40.86570 14.26099 1861 ft 175 kts 180°
2026-04-21 06:25 40.85315 14.26380 2484 ft 188 kts 171°
2026-04-21 06:25 40.84007 14.26679 3294 ft 192 kts 174°
2026-04-21 06:26 40.82698 14.26945 4138 ft 193 kts 176°
2026-04-21 06:26 40.81351 14.27187 4951 ft 195 kts 177°
2026-04-21 06:26 40.79992 14.27404 5656 ft 199 kts 178°
2026-04-21 06:26 40.78598 14.27606 6329 ft 203 kts 179°
2026-04-21 06:27 40.77178 14.27801 6936 ft 206 kts 179°
2026-04-21 06:27 40.75739 14.28042 7446 ft 215 kts 169°
2026-04-21 06:27 40.74420 14.29208 7614 ft 248 kts 127°
2026-04-21 06:27 40.73859 14.31437 7827 ft 270 kts 89°
2026-04-21 06:28 40.74268 14.33894 8144 ft 285 kts 62°
2026-04-21 06:28 40.75450 14.36058 8559 ft 295 kts 38°
2026-04-21 06:28 40.77079 14.37700 9430 ft 294 kts 31°
2026-04-21 06:28 40.78762 14.39248 10284 ft 297 kts 31°
2026-04-21 06:29 40.80510 14.40860 10623 ft 319 kts 31°
2026-04-21 06:29 40.82387 14.42630 10824 ft 344 kts 32°
2026-04-21 06:29 40.84376 14.44551 11140 ft 361 kts 33°
2026-04-21 06:29 40.86415 14.46561 11810 ft 367 kts 34°
2026-04-21 06:30 40.88429 14.48570 12645 ft 368 kts 34°
2026-04-21 06:30 40.90472 14.50619 13442 ft 370 kts 34°
2026-04-21 06:30 40.92536 14.52695 14136 ft 374 kts 34°
2026-04-21 06:30 40.94647 14.54819 14760 ft 379 kts 34°
2026-04-21 06:31 40.96733 14.56921 15385 ft 384 kts 34°
2026-04-21 06:31 40.98872 14.59076 16016 ft 388 kts 34°
2026-04-21 06:31 41.01032 14.61254 16627 ft 392 kts 34°
2026-04-21 06:31 41.03219 14.63461 17247 ft 397 kts 33°
2026-04-21 06:32 41.05436 14.65667 17858 ft 400 kts 31°
2026-04-21 06:32 41.07851 14.67489 18388 ft 400 kts 19°
2026-04-21 06:32 41.10429 14.68908 18937 ft 401 kts 17°
2026-04-21 06:32 41.13024 14.70290 19515 ft 403 kts 17°
2026-04-21 06:33 41.15601 14.71677 20054 ft 406 kts 17°
2026-04-21 06:33 41.18259 14.73134 20605 ft 410 kts 18°
2026-04-21 06:33 41.20899 14.74601 21119 ft 413 kts 18°
2026-04-21 06:33 41.23525 14.76068 21640 ft 416 kts 18°
2026-04-21 06:34 41.26194 14.77621 22167 ft 421 kts 20°
2026-04-21 06:34 41.28832 14.79351 22645 ft 425 kts 21°
2026-04-21 06:34 41.31564 14.80850 23106 ft 421 kts 11°
2026-04-21 06:34 41.34412 14.81698 23609 ft 418 kts
2026-04-21 06:35 41.37293 14.82332 24028 ft 420 kts
2026-04-21 06:35 41.40153 14.82924 24394 ft 422 kts
2026-04-21 06:35 41.43066 14.83524 24801 ft 425 kts
2026-04-21 06:35 41.45999 14.84139 25220 ft 427 kts
2026-04-21 06:36 41.48941 14.84771 25614 ft 430 kts
2026-04-21 06:36 41.51906 14.85419 25978 ft 432 kts
2026-04-21 06:36 41.54880 14.86077 26338 ft 434 kts
2026-04-21 06:36 41.57872 14.86744 26682 ft 437 kts
2026-04-21 06:37 41.60884 14.87418 27009 ft 439 kts
2026-04-21 06:37 41.63909 14.88097 27364 ft 441 kts
2026-04-21 06:37 41.66904 14.88769 27722 ft 443 kts
2026-04-21 06:37 41.69949 14.89454 28063 ft 445 kts
2026-04-21 06:38 41.73007 14.90142 28377 ft 447 kts
2026-04-21 06:38 41.76100 14.90837 28686 ft 449 kts
2026-04-21 06:38 41.79191 14.91533 28975 ft 451 kts
2026-04-21 06:38 41.82301 14.92234 29293 ft 453 kts
2026-04-21 06:39 41.85413 14.92937 29674 ft 453 kts
2026-04-21 06:39 41.88518 14.93640 30118 ft 451 kts
2026-04-21 06:39 41.91611 14.94342 30528 ft 449 kts
2026-04-21 06:39 41.94691 14.95041 30901 ft 447 kts
2026-04-21 06:40 41.97717 14.95727 31235 ft 447 kts
2026-04-21 06:40 42.00780 14.96421 31592 ft 445 kts
2026-04-21 06:40 42.03827 14.97113 31996 ft 444 kts
2026-04-21 06:40 42.06872 14.97805 32393 ft 441 kts
2026-04-21 06:41 42.09888 14.98492 32766 ft 439 kts
2026-04-21 06:41 42.12913 14.99179 33087 ft 439 kts
2026-04-21 06:41 42.15918 14.99863 33403 ft 438 kts
2026-04-21 06:41 42.18918 15.00547 33746 ft 437 kts
2026-04-21 06:42 42.21910 15.01230 34078 ft 435 kts
2026-04-21 06:42 42.24903 15.01913 34340 ft 435 kts
2026-04-21 06:42 42.27847 15.02586 34556 ft 435 kts
2026-04-21 06:42 42.30838 15.03269 34773 ft 435 kts
2026-04-21 06:43 42.33832 15.03955 35008 ft 435 kts
2026-04-21 06:43 42.36820 15.04640 35232 ft 435 kts
2026-04-21 06:43 42.39805 15.05325 35440 ft 435 kts
2026-04-21 06:43 42.42785 15.06009 35659 ft 435 kts
2026-04-21 06:44 42.45781 15.06698 35905 ft 435 kts
2026-04-21 06:44 42.51781 15.08078 35956 ft 439 kts
2026-04-21 06:45 42.57777 15.09465 35952 ft 435 kts
2026-04-21 06:45 42.63691 15.10835 35977 ft 432 kts
2026-04-21 06:46 42.69614 15.12207 35966 ft 431 kts
2026-04-21 06:46 42.75522 15.13577 35960 ft 430 kts
2026-04-21 06:47 42.81426 15.14949 35966 ft 430 kts
2026-04-21 06:47 42.87352 15.16329 35968 ft 432 kts
2026-04-21 06:48 42.93298 15.17717 35968 ft 434 kts
2026-04-21 06:48 42.99234 15.19106 35963 ft 436 kts
2026-04-21 06:49 43.05249 15.20514 35687 ft 441 kts
2026-04-21 06:49 43.08272 15.21292 35445 ft 441 kts
2026-04-21 06:49 43.11261 15.22179 35189 ft 437 kts
2026-04-21 06:49 43.14231 15.23110 35009 ft 435 kts
2026-04-21 06:50 43.17179 15.24045 34974 ft 436 kts
2026-04-21 06:50 43.23085 15.25895 34961 ft 438 kts
2026-04-21 06:51 43.29012 15.27726 34954 ft 435 kts
2026-04-21 06:51 43.34910 15.29536 34958 ft 432 kts
2026-04-21 06:52 43.40737 15.31321 34973 ft 431 kts
2026-04-21 06:52 43.46584 15.33115 34955 ft 430 kts
2026-04-21 06:53 43.52430 15.34913 34953 ft 430 kts
2026-04-21 06:53 43.57290 15.36411 34955 ft 430 kts
2026-04-21 06:54 43.63146 15.38219 34963 ft 431 kts
2026-04-21 06:54 43.69008 15.40033 34959 ft 432 kts
2026-04-21 06:55 43.74894 15.41859 34959 ft 433 kts
2026-04-21 06:55 43.80751 15.43679 34956 ft 434 kts
2026-04-21 06:56 43.86653 15.45517 34965 ft 435 kts
2026-04-21 06:56 43.92562 15.47361 34964 ft 435 kts
2026-04-21 06:57 43.98478 15.49211 34973 ft 436 kts
2026-04-21 06:57 44.04367 15.51056 34968 ft 436 kts
2026-04-21 06:58 44.10292 15.52916 34963 ft 437 kts
2026-04-21 06:58 44.16218 15.54781 34973 ft 437 kts
2026-04-21 06:59 44.22159 15.56654 34965 ft 437 kts
2026-04-21 06:59 44.28092 15.58528 34971 ft 437 kts
2026-04-21 07:00 44.33992 15.60396 34991 ft 436 kts
2026-04-21 07:00 44.39923 15.62278 35005 ft 436 kts
2026-04-21 07:01 44.45842 15.64159 35001 ft 436 kts
2026-04-21 07:01 44.54730 15.66991 35030 ft 436 kts
2026-04-21 07:02 44.60622 15.68873 35021 ft 436 kts
2026-04-21 07:02 44.66541 15.70769 35029 ft 436 kts
2026-04-21 07:03 44.72462 15.72670 35049 ft 436 kts
2026-04-21 07:03 44.78374 15.74571 35056 ft 436 kts
2026-04-21 07:04 44.84291 15.76477 35049 ft 435 kts
2026-04-21 07:04 44.90177 15.78379 35066 ft 434 kts
2026-04-21 07:05 44.96065 15.80283 35061 ft 433 kts
2026-04-21 07:05 45.01903 15.82176 35067 ft 433 kts
2026-04-21 07:06 45.07777 15.84085 35076 ft 433 kts
2026-04-21 07:06 45.13643 15.85995 35067 ft 433 kts
2026-04-21 07:07 45.19510 15.87910 35075 ft 432 kts
2026-04-21 07:07 45.25370 15.89825 35094 ft 432 kts
2026-04-21 07:08 45.31235 15.91748 35078 ft 432 kts
2026-04-21 07:08 45.37097 15.93673 35074 ft 432 kts
2026-04-21 07:09 45.42955 15.95600 35074 ft 432 kts
2026-04-21 07:09 45.48813 15.97532 35076 ft 432 kts
2026-04-21 07:10 45.54634 15.99457 35080 ft 432 kts
2026-04-21 07:10 45.60496 16.01398 35087 ft 432 kts
2026-04-21 07:11 45.66356 16.03343 35069 ft 432 kts
2026-04-21 07:11 45.72218 16.05294 35066 ft 432 kts
2026-04-21 07:12 45.78063 16.07242 35076 ft 431 kts
2026-04-21 07:12 45.83920 16.09199 35097 ft 431 kts
2026-04-21 07:13 45.89730 16.11144 35084 ft 431 kts
2026-04-21 07:13 45.95567 16.13102 35076 ft 431 kts
2026-04-21 07:14 46.01404 16.15065 35082 ft 431 kts
2026-04-21 07:14 46.07259 16.17037 35091 ft 431 kts
2026-04-21 07:15 46.13067 16.19000 35088 ft 431 kts
2026-04-21 07:15 46.18941 16.20983 34536 ft 438 kts
2026-04-21 07:16 46.21901 16.21986 33932 ft 437 kts
2026-04-21 07:16 46.24860 16.22993 33368 ft 435 kts
2026-04-21 07:16 46.27791 16.23994 32875 ft 430 kts
2026-04-21 07:16 46.30687 16.24981 32399 ft 426 kts
2026-04-21 07:17 46.33560 16.25960 31937 ft 421 kts
2026-04-21 07:17 46.36407 16.26919 31492 ft 415 kts
2026-04-21 07:17 46.39194 16.27190 31049 ft 388 kts 343°
2026-04-21 07:17 46.41778 16.26616 30687 ft 378 kts 340°
2026-04-21 07:18 46.44363 16.25974 30269 ft 374 kts 340°
2026-04-21 07:18 46.46919 16.25333 29779 ft 373 kts 340°
2026-04-21 07:18 46.49487 16.24691 29292 ft 373 kts 340°
2026-04-21 07:18 46.52037 16.24071 28840 ft 369 kts 340°
2026-04-21 07:19 46.54564 16.23462 28382 ft 366 kts 340°
2026-04-21 07:19 46.57061 16.22865 27947 ft 362 kts 340°
2026-04-21 07:19 46.59533 16.22276 27533 ft 360 kts 340°
2026-04-21 07:19 46.62018 16.21679 27110 ft 364 kts 340°
2026-04-21 07:20 46.64529 16.21076 26700 ft 363 kts 342°
2026-04-21 07:20 46.66985 16.20493 26251 ft 361 kts 343°
2026-04-21 07:20 46.69461 16.19904 25811 ft 359 kts 343°
2026-04-21 07:20 46.71918 16.19319 25389 ft 357 kts 343°
2026-04-21 07:21 46.74364 16.18735 24974 ft 357 kts 344°
2026-04-21 07:21 46.76825 16.18145 24560 ft 359 kts 344°
2026-04-21 07:21 46.79298 16.17552 24124 ft 359 kts 345°
2026-04-21 07:21 46.81756 16.16965 23713 ft 357 kts 345°
2026-04-21 07:22 46.84203 16.16380 23223 ft 354 kts 345°
2026-04-21 07:22 46.86627 16.15799 22774 ft 351 kts 346°
2026-04-21 07:22 46.89001 16.15229 22342 ft 349 kts 347°
2026-04-21 07:22 46.91387 16.14657 21939 ft 346 kts 347°
2026-04-21 07:23 46.93765 16.14085 21512 ft 345 kts 347°
2026-04-21 07:23 46.96137 16.13514 21115 ft 344 kts 347°
2026-04-21 07:23 46.98498 16.12946 20722 ft 342 kts 347°
2026-04-21 07:23 47.00849 16.12379 20313 ft 341 kts 347°
2026-04-21 07:24 47.03160 16.11821 19923 ft 340 kts 347°
2026-04-21 07:24 47.05485 16.11259 19526 ft 337 kts 347°
2026-04-21 07:24 47.07790 16.10702 19140 ft 334 kts 347°
2026-04-21 07:24 47.10087 16.10146 18764 ft 332 kts 347°
2026-04-21 07:25 47.12358 16.09596 18367 ft 330 kts 348°
2026-04-21 07:25 47.14626 16.09045 17926 ft 327 kts 348°
2026-04-21 07:25 47.16865 16.08502 17521 ft 325 kts 348°
2026-04-21 07:25 47.19080 16.07964 17143 ft 321 kts 348°
2026-04-21 07:26 47.21254 16.07435 16772 ft 319 kts 348°
2026-04-21 07:26 47.23439 16.06903 16396 ft 319 kts 348°
2026-04-21 07:26 47.25633 16.06367 16016 ft 320 kts 348°
2026-04-21 07:26 47.27833 16.05830 15629 ft 320 kts 348°
2026-04-21 07:27 47.30022 16.05297 15253 ft 318 kts 348°
2026-04-21 07:27 47.32194 16.04767 14888 ft 315 kts 349°
2026-04-21 07:27 47.34353 16.04239 14516 ft 314 kts 349°
2026-04-21 07:27 47.36519 16.03817 14142 ft 316 kts 358°
2026-04-21 07:28 47.38701 16.04379 13642 ft 322 kts 15°
2026-04-21 07:28 47.40824 16.05416 13203 ft 321 kts 16°
2026-04-21 07:28 47.42930 16.06488 12804 ft 318 kts 17°
2026-04-21 07:28 47.45010 16.07551 12454 ft 314 kts 17°
2026-04-21 07:29 47.47070 16.08597 12087 ft 312 kts 17°
2026-04-21 07:29 47.49119 16.09630 11720 ft 309 kts 16°
2026-04-21 07:29 47.51143 16.10645 11385 ft 306 kts 17°
2026-04-21 07:29 47.53044 16.12042 11045 ft 307 kts 36°
2026-04-21 07:30 47.54610 16.14136 10948 ft 298 kts 39°
2026-04-21 07:30 47.56086 16.16153 10852 ft 288 kts 39°
2026-04-21 07:30 47.57540 16.18128 10772 ft 278 kts 39°
2026-04-21 07:30 47.58942 16.20029 10588 ft 268 kts 39°
2026-04-21 07:31 47.60313 16.21882 10174 ft 265 kts 39°
2026-04-21 07:31 47.61671 16.23711 9702 ft 263 kts 39°
2026-04-21 07:31 47.63022 16.25533 9234 ft 261 kts 38°
2026-04-21 07:31 47.64364 16.27341 8819 ft 259 kts 38°
2026-04-21 07:32 47.65681 16.29117 8487 ft 254 kts 38°
2026-04-21 07:32 47.67003 16.30896 8231 ft 258 kts 38°
2026-04-21 07:32 47.68340 16.32697 7958 ft 260 kts 38°
2026-04-21 07:32 47.69681 16.34497 7671 ft 258 kts 38°
2026-04-21 07:33 47.71008 16.36284 7406 ft 257 kts 38°
2026-04-21 07:33 47.72330 16.38075 7132 ft 257 kts 38°
2026-04-21 07:33 47.73647 16.39861 6883 ft 256 kts 38°
2026-04-21 07:33 47.74968 16.41650 6595 ft 257 kts 37°
2026-04-21 07:34 47.76287 16.43438 6335 ft 257 kts 37°
2026-04-21 07:34 47.77595 16.45209 6051 ft 258 kts 38°
2026-04-21 07:34 47.78926 16.47011 5773 ft 258 kts 38°
2026-04-21 07:34 47.80254 16.48815 5493 ft 258 kts 38°
2026-04-21 07:35 47.81572 16.50607 5281 ft 254 kts 38°
2026-04-21 07:35 47.82854 16.52354 5180 ft 245 kts 38°
2026-04-21 07:35 47.84082 16.54026 5069 ft 238 kts 38°
2026-04-21 07:35 47.85281 16.55660 4990 ft 230 kts 37°
2026-04-21 07:36 47.86452 16.57253 4885 ft 225 kts 37°
2026-04-21 07:36 47.87597 16.58799 4750 ft 218 kts 37°
2026-04-21 07:36 47.88696 16.60301 4524 ft 211 kts 38°
2026-04-21 07:36 47.89759 16.61758 4299 ft 204 kts 37°
2026-04-21 07:37 47.90796 16.63175 4112 ft 201 kts 37°
2026-04-21 07:37 47.91825 16.64576 3911 ft 199 kts 37°
2026-04-21 07:37 47.92547 16.65354 3880 ft 186 kts 19°
2026-04-21 07:37 47.93758 16.65440 3762 ft 176 kts 341°
2026-04-21 07:38 47.94947 16.64936 3519 ft 177 kts 345°
2026-04-21 07:38 47.96511 16.64360 3211 ft 172 kts 343°
2026-04-21 07:38 47.97654 16.63888 2978 ft 168 kts 342°
2026-04-21 07:38 47.98765 16.63420 2733 ft 164 kts 342°
2026-04-21 07:39 47.99500 16.63108 2574 ft 160 kts 342°
2026-04-21 07:39 48.00540 16.62667 2344 ft 150 kts 342°
2026-04-21 07:39 48.01517 16.62252 2150 ft 144 kts 342°
2026-04-21 07:39 48.02446 16.61857 1961 ft 139 kts 342°
2026-04-21 07:40 48.03372 16.61464 1779 ft 137 kts 343°
2026-04-21 07:40 48.04276 16.61081 1585 ft 137 kts 342°
2026-04-21 07:40 48.05187 16.60694 1400 ft 135 kts 342°
2026-04-21 07:40 48.06102 16.60305 1198 ft 137 kts 342°
2026-04-21 07:41 48.07014 16.59919 1005 ft 135 kts 341°
2026-04-21 07:41 48.07922 16.59530 841 ft 135 kts 342°
2026-04-21 07:41 48.08823 16.59147 661 ft 133 kts 342°
2026-04-21 07:41 48.09662 16.58791 613 ft 111 kts 345°
2026-04-21 07:42 48.10259 16.58540 615 ft 67 kts 345°
2026-04-21 07:42 48.10563 16.58412 616 ft 28 kts 344°
2026-04-21 07:42 48.10726 16.58279 614 ft 26 kts 321°
2026-04-21 07:42 48.10842 16.58107 614 ft 22 kts 314°
2026-04-21 07:43 48.10957 16.57972 616 ft 21 kts 340°
2026-04-21 07:43 48.11085 16.57908 613 ft 16 kts 323°
2026-04-21 07:43 48.11140 16.57767 610 ft 15 kts 297°
2026-04-21 07:43 48.11186 16.57627 617 ft 15 kts 295°
2026-04-21 07:44 48.11230 16.57490 616 ft 14 kts 297°
2026-04-21 07:44 48.11277 16.57348 618 ft 18 kts 295°
2026-04-21 07:44 48.11327 16.57192 608 ft 18 kts 296°
2026-04-21 07:44 48.11386 16.57014 608 ft 21 kts 296°
2026-04-21 07:45 48.11457 16.56793 610 ft 26 kts 296°
2026-04-21 07:45 48.11533 16.56563 616 ft 25 kts 297°
2026-04-21 07:45 48.11601 16.56353 608 ft 22 kts 296°
2026-04-21 07:45 48.11669 16.56146 612 ft 22 kts 296°
2026-04-21 07:46 48.11735 16.55943 618 ft 21 kts 295°
2026-04-21 07:46 48.11794 16.55760 612 ft 17 kts 296°
2026-04-21 07:46 48.11841 16.55617 616 ft 15 kts 297°
2026-04-21 07:46 48.11882 16.55478 614 ft 13 kts 289°
2026-04-21 07:47 48.11958 16.55468 614 ft 13 kts 25°
2026-04-21 07:47 48.12043 16.55530 608 ft 6 kts 26°
2026-04-21 07:47 48.12076 16.55503 610 ft 7 kts 295°
2026-04-21 07:47 48.12082 16.55485 608 ft 0 kts 295°
2026-04-21 07:48 48.12083 16.55480 619 ft 0 kts 296°